Simultaneous Nadir Overpasses (SNOs) Predictions

Prediction of SNOs between METOP-B and TERRA Satellite Orbit:

Table of predicted SNOs for the next 14.0 days since TLE Epoch: 2/17/2018
Index Date (METOP-B) Time (METOP-B) Lat,Lon (METOP-B) SZA (METOP-B ) Date (TERRA) Time (TERRA) Lat,Lon (TERRA) SZA (TERRA ) Distance(km) Time Diff (sec)
1 02/17/2018 22:57:08 -81.33, 63.41 84.57 02/17/2018 22:57:21 -81.33, 63.50 84.55 1.64 13
2 02/17/2018 23:47:48 81.33,-128.94 95.46 02/17/2018 23:46:47 81.34,-128.76 95.45 3.04 61
3 02/20/2018 18:31:29 -81.33, 130.16 85.53 02/20/2018 18:31:36 -81.33, 129.98 85.54 3.12 7
4 02/20/2018 19:22:09 81.33, -62.19 94.50 02/20/2018 19:21:02 81.34, -62.31 94.46 2.17 67
5 02/23/2018 13:15:12 81.32, 28.48 93.40 02/23/2018 13:16:25 81.32, 28.42 93.42 1.07 73
6 02/23/2018 14:05:51 -81.33,-163.50 86.54 02/23/2018 14:05:51 -81.33,-163.57 86.55 1.35 0
7 02/23/2018 14:56:22 81.36, 7.71 93.88 02/23/2018 14:55:08 81.50, 7.62 93.94 16.52 74
8 02/26/2018 08:49:33 81.32, 94.79 92.36 02/26/2018 08:50:39 81.31, 94.82 92.38 0.86 66
9 02/26/2018 09:40:12 -81.33, -97.19 87.58 02/26/2018 09:40:05 -81.33, -97.16 87.58 0.85 7
10 03/01/2018 04:23:54 81.32, 161.47 91.35 03/01/2018 04:24:53 81.33, 161.57 91.39 1.81 59




NCC Satellite Simultaneous Nadir Overpasses (SNOs) Prediction Service
